Vorticity
nan nan nan nan nan nan nan nan nan nan nan nan nan nan nan nan nan nan nan nan nan nan nan nan nan nan nan nan nan nan nan nan nan nan nan nan nan nan nan nan nan nan nan nan
nan 9 9 9 12 28 25 11 9 8 10 9 10 9 13 15 8 9 8 10 12 16 11 8 10 8 10 15 8 12 7 2 8 12 11 12 15 8 8 3 6 5 4 nan
nan 8 9 9 13 27 26 11 11 8 10 12 11 5 12 11 8 11 11 13 13 12 3 9 16 7 11 13 2 7 11 7 5 -2 -6 8 12 7 7 9 8 13 4 nan
nan 9 8 10 14 25 25 10 7 9 13 12 10 11 10 6 8 8 10 6 10 8 10 9 10 8 7 10 13 2 7 8 11 4 1 4 6 6 13 11 7 8 3 nan
nan 10 9 10 14 25 22 9 7 10 15 11 4 10 13 8 8 10 10 11 12 8 9 11 12 9 7 12 13 5 5 8 11 16 20 11 10 17 20 20 16 12 14 nan
nan 10 10 10 14 26 18 10 10 8 13 14 7 9 9 8 7 8 13 16 12 7 6 9 10 9 7 12 13 10 5 10 10 9 6 22 27 22 16 16 12 11 15 nan
nan 10 10 9 12 23 20 11 11 12 15 12 10 9 12 7 7 13 10 9 8 8 9 10 10 11 12 9 6 9 7 6 6 6 13 11 12 15 12 11 9 14 13 nan
nan 9 9 8 7 21 23 10 11 14 12 11 10 6 8 10 6 7 9 9 8 8 10 10 11 13 16 17 18 12 4 1 7 10 13 10 9 11 14 12 13 15 17 nan
nan 7 8 8 8 17 19 14 11 10 13 11 8 9 6 8 9 9 7 6 8 13 11 11 10 9 13 13 11 17 21 9 3 5 10 12 9 15 15 7 3 4 19 nan
nan 8 7 8 8 13 22 11 13 14 10 6 11 12 8 11 7 8 12 8 10 13 11 9 10 8 11 12 11 10 11 14 12 8 8 7 9 11 9 4 3 8 14 nan
nan 7 8 9 8 12 19 14 10 12 10 9 12 9 8 10 10 8 10 8 11 10 11 10 10 10 9 10 13 13 8 6 11 10 8 11 11 5 3 10 9 11 12 nan
nan 7 6 8 9 11 16 14 10 13 9 8 9 13 12 8 13 15 6 10 13 10 13 10 9 9 10 11 11 10 10 7 9 12 6 6 8 8 10 12 12 13 15 nan
nan 8 7 7 9 10 14 14 12 10 11 13 15 19 14 9 7 12 13 12 12 9 9 12 11 11 10 13 10 10 14 12 5 9 5 2 14 18 12 12 17 17 18 nan
nan 9 9 9 9 9 15 14 11 10 11 12 10 12 10 10 11 9 12 12 9 11 10 9 10 13 9 6 10 8 14 12 9 7 8 12 14 12 13 15 17 16 16 nan
nan 10 9 10 9 13 17 16 17 12 8 10 10 13 11 11 16 13 11 9 7 8 10 10 10 10 12 9 9 13 9 4 3 5 16 15 10 13 14 14 13 14 14 nan
nan 9 10 12 11 17 17 16 18 17 9 8 10 14 13 12 14 13 12 11 10 10 10 10 12 11 10 12 10 14 15 10 3 9 9 12 11 10 14 14 14 14 13 nan
nan 11 14 17 23 22 10 8 9 14 10 10 11 11 10 11 11 10 12 12 10 11 11 11 10 12 11 11 8 6 9 15 16 13 9 12 13 11 15 12 11 12 11 nan
nan 14 21 29 27 16 12 7 12 11 9 11 11 13 12 9 10 11 10 10 11 11 9 12 11 11 10 12 13 8 10 11 12 15 7 12 18 15 12 11 10 9 9 nan
nan 23 28 24 17 8 5 12 16 11 11 12 13 11 12 10 9 12 10 11 12 10 12 11 11 13 7 4 6 14 19 15 14 17 13 14 11 10 10 9 8 8 9 nan
nan 25 17 12 3 10 17 14 12 11 10 10 9 10 14 11 10 11 10 10 11 10 12 12 12 11 13 14 11 11 15 17 13 4 8 9 14 16 13 9 9 10 10 nan
nan 11 10 7 11 19 14 11 12 10 12 12 11 13 11 13 10 8 11 12 11 11 10 11 11 11 15 14 15 15 18 18 7 3 15 15 12 13 11 11 11 12 12 nan
nan 11 12 12 15 13 12 12 13 11 9 12 13 13 11 11 11 13 12 11 10 10 9 13 11 10 7 8 10 12 19 23 17 11 13 16 17 15 12 12 12 11 11 nan
nan 11 12 13 12 11 13 12 11 10 8 11 14 12 13 12 10 12 12 12 10 11 11 11 8 9 9 10 12 13 18 22 16 12 15 17 17 16 15 11 10 12 11 nan
nan 12 12 12 13 11 10 11 10 10 9 10 13 12 11 12 13 11 12 11 11 11 12 10 6 6 10 13 15 14 15 16 14 14 13 15 14 12 12 13 13 11 10 nan
nan 12 13 11 11 11 10 12 11 11 10 12 13 12 12 10 12 11 10 12 12 12 8 6 5 8 12 12 13 16 16 13 13 13 13 12 12 11 11 13 12 12 13 nan
nan 12 11 12 11 10 10 11 13 10 11 15 12 12 13 12 12 13 9 9 11 7 7 7 7 9 10 12 14 16 16 14 13 14 14 12 12 13 11 12 12 13 12 nan
nan nan nan nan nan nan nan nan nan nan nan nan nan nan nan nan nan nan nan nan nan nan nan nan nan nan nan nan nan nan nan nan nan nan nan nan nan nan nan nan nan nan nan nan
CAPE
75 67 34 53 42 69 8 10 17 112 106 5 17 70 3 14 8 0 0 1 0 0 0 4 4 3 0 0 2 5 4 10 5 0 0 0 0 0 4 29 0 5 31 3
68 49 31 30 30 57 43 19 23 48 67 92 58 7 2 14 25 43 28 1 0 0 0 0 3 2 0 0 0 7 2 17 6 1 0 0 3 0 1 11 16 20 46 1
63 34 31 28 17 31 35 3 46 35 19 43 39 14 15 25 40 35 9 0 0 0 0 0 3 1 0 0 0 1 13 11 14 0 12 1 19 6 6 9 35 7 8 1
63 31 21 36 34 6 8 5 35 34 40 9 22 14 27 24 12 10 0 0 0 0 0 2 1 2 0 0 1 0 10 32 15 4 3 4 3 6 4 3 21 18 0 5
54 54 29 58 33 5 9 4 8 7 4 19 21 9 20 19 14 9 0 0 1 0 7 8 6 6 3 5 0 3 15 26 25 6 2 0 13 2 5 9 8 22 14 9
35 51 53 46 41 15 12 10 4 8 5 9 17 23 8 12 14 3 1 9 12 15 19 11 4 5 2 6 12 12 14 20 11 1 0 0 5 1 4 4 4 7 11 0
24 16 38 9 13 31 11 16 10 11 15 16 9 0 0 3 26 29 5 6 13 28 12 12 6 3 6 2 0 1 18 2 6 22 1 11 2 0 0 2 4 5 4 6
28 19 35 21 1 4 12 18 7 8 16 11 2 0 16 7 3 2 16 6 5 8 16 24 8 7 4 0 5 10 11 21 27 31 9 0 1 0 0 5 0 0 0 0
3 10 6 7 4 3 16 18 0 4 10 5 2 4 1 19 17 9 6 11 20 29 56 24 16 18 1 2 9 3 18 13 19 17 16 7 0 0 0 0 1 0 0 0
3 2 6 3 6 3 12 33 0 4 7 5 5 7 14 2 9 22 6 3 1 12 37 23 49 12 0 2 3 1 7 6 3 5 18 0 0 0 0 1 0 0 0 0
3 5 7 10 8 6 11 15 1 0 5 0 1 11 14 32 29 26 3 13 7 25 13 25 20 32 16 0 0 0 1 4 6 3 7 0 0 0 0 0 0 0 0 0
6 6 10 11 14 12 10 6 22 13 3 1 0 0 1 2 27 16 8 34 18 19 7 7 6 18 12 10 7 0 4 1 10 0 5 0 0 0 0 0 0 0 0 0
13 15 25 24 11 16 24 27 25 16 6 4 7 11 15 1 3 4 41 21 9 30 23 19 14 36 14 36 8 7 0 0 0 0 1 0 0 0 0 0 0 0 0 0
16 21 23 23 22 21 29 35 30 35 3 7 3 0 0 0 0 0 7 25 8 16 13 9 11 11 32 20 10 0 4 0 0 0 0 0 0 0 0 0 0 0 0 0
11 23 31 38 27 26 48 25 13 21 7 13 3 0 0 0 0 0 4 18 32 31 24 13 11 14 25 6 10 0 0 0 0 12 0 0 0 0 0 0 0 0 0 0
12 19 48 41 31 30 42 9 44 34 24 8 10 1 0 0 1 2 3 5 12 12 23 13 19 13 18 18 13 0 0 0 0 0 0 0 0 0 0 0 0 0 0 0
19 21 48 38 32 47 35 6 21 7 12 5 3 14 19 3 2 4 5 7 10 10 10 17 15 8 12 18 6 0 0 0 0 0 0 0 0 0 0 0 0 0 0 0
10 16 3 2 22 28 24 21 23 25 8 10 7 26 24 4 12 18 12 10 21 19 20 16 7 2 10 24 0 0 0 0 0 0 0 0 0 0 0 0 0 0 0 0
6 0 0 55 55 35 18 1 15 25 14 8 16 17 19 9 23 23 7 43 38 31 39 26 3 4 5 0 0 0 0 0 0 0 0 0 0 0 0 0 0 0 0 0
0 0 3 25 19 0 0 14 19 13 14 7 14 3 13 5 12 39 47 39 29 48 21 0 4 2 0 0 0 0 0 0 0 0 0 0 0 0 0 0 0 0 0 0
7 3 2 4 0 13 9 5 8 9 4 6 13 10 11 0 4 28 5 1 1 20 2 3 8 1 0 0 0 0 0 0 0 0 0 0 0 0 0 0 0 0 0 0
6 10 11 7 7 5 3 2 2 5 6 10 24 12 5 1 0 9 1 6 3 16 0 2 5 0 0 0 0 0 0 0 0 0 0 0 0 0 0 0 0 0 0 0
7 7 2 1 3 4 4 1 1 3 4 1 0 4 3 0 0 1 0 7 5 0 5 1 0 0 0 0 0 0 0 0 0 0 0 0 0 0 0 0 0 0 0 0
1 1 0 2 2 1 5 7 5 8 1 1 3 0 0 0 0 0 4 0 0 3 1 0 0 0 0 0 0 0 0 0 0 0 0 0 0 0 0 0 0 0 0 0
2 2 0 0 0 2 6 7 7 2 5 2 1 0 0 0 0 0 1 3 2 0 0 1 0 0 0 0 0 0 0 0 0 0 0 0 0 0 0 0 0 0 0 0
13 1 1 1 1 2 3 3 1 2 1 1 0 0 1 0 3 3 0 0 0 0 2 1 0 0 0 0 0 0 0 0 0 0 0 0 0 0 0 0 0 0 0 0
0 1 5 2 2 2 1 0 0 0 0 1 0 1 2 2 2 3 1 0 0 1 2 0 0 0 0 0 0 0 0 0 0 0 0 0 0 0 0 0 0 0 0 0